This demonstration page uses our WeatherBlox Daily Observations layout. Learn more.

Left ArrowRight Arrow

41.86663, -103.66717

Hourly Observations for March 20, 2020

Temp ( °F °C ) Dew Point ( °F °C ) Humidity (%) Winds ( mph kmh ) Pressure ( in mb ) Visibility ( mi km ) Precip ( " mm )
12:53 am 00:53 Cloudy 20 -6.7 14 -10 78 78 N 17 28 30.51 1033 10 16 N/A
1:53 am 01:53 Mostly Cloudy 19 -7.2 12 -11.1 74 74 NNE 16 26 30.53 1034 10 16 N/A
2:53 am 02:53 Mostly Cloudy 17 -8.3 11 -11.7 77 77 NE 6 9 30.55 1035 10 16 N/A
3:53 am 03:53 Cloudy 17 -8.3 11 -11.7 77 77 NNE 6 9 30.55 1035 10 16 N/A
4:53 am 04:53 Clear 15 -9.4 10 -12.2 80 80 N N/A 30.58 1035 10 16 N/A
5:53 am 05:53 Clear 12 -11.1 8 -13.3 84 84 E 6 9 30.60 1036 10 16 N/A
6:53 am 06:53 Cloudy 14 -10 9 -12.8 80 80 E 6 9 30.60 1036 10 16 N/A
7:53 am 07:53 Cloudy 15 -9.4 9 -12.8 77 77 E 12 19 30.61 1037 10 16 N/A
8:53 am 08:53 Cloudy 15 -9.4 8 -13.3 74 74 E 10 17 30.61 1037 10 16 N/A
9:53 am 09:53 Partly Cloudy 17 -8.3 10 -12.2 74 74 ESE 8 13 30.62 1037 10 16 N/A
10:53 am 10:53 Cloudy 19 -7.2 13 -10.6 77 77 SE 9 15 30.61 1037 10 16 N/A
11:53 am 11:53 Cloudy 22 -5.6 14 -10 71 71 SE 14 22 30.60 1036 10 16 N/A
12:53 pm 12:53 Cloudy 21 -6.1 13 -10.6 71 71 SSE 12 19 30.60 1036 9 14 N/A
1:53 pm 13:53 Cloudy with Light Snow 22 -5.6 14 -10 71 71 SSE 15 24 30.56 1035 6 10 0.00 0.00
2:53 pm 14:53 Cloudy 22 -5.6 15 -9.4 75 75 SE 13 20 30.53 1034 9 14 0.00 0.00
3:53 pm 15:53 Cloudy 25 -3.9 17 -8.3 72 72 SE 17 28 30.49 1032 10 16 N/A
4:53 pm 16:53 Mostly Cloudy 25 -3.9 16 -8.9 69 69 S 16 26 30.47 1032 10 16 N/A
5:53 pm 17:53 Sunny 25 -3.9 16 -8.9 69 69 S 13 20 30.45 1031 10 16 N/A
6:53 pm 18:53 Sunny 23 -5 16 -8.9 74 74 SE 12 19 30.43 1030 10 16 N/A
7:53 pm 19:53 Clear 20 -6.7 16 -8.9 85 85 undefined N/A 30.42 1030 10 16 N/A
8:53 pm 20:53 Clear 20 -6.7 17 -8.3 89 89 ESE 13 20 30.42 1030 10 16 N/A
9:53 pm 21:53 Clear 20 -6.7 17 -8.3 89 89 ESE 13 20 30.40 1030 10 16 N/A
10:53 pm 22:53 Clear 20 -6.7 17 -8.3 89 89 ESE 14 22 30.39 1029 10 16 N/A
11:53 pm 23:53 Clear 19 -7.2 17 -8.3 92 92 E 13 20 30.37 1028 10 16 N/A

Powered by AerisWeather